Weather History for EGDM - December, 2012

Change the Weather History Date:

Tuesday, December 18, 2012

  Actual Average Record
Temperature  
Mean Temperature 41 °F -  
Max Temperature 47 °F 42 °F 54 °F (2014)
Min Temperature 33 °F 34 °F 23 °F (2005)
Degree Days  
Heating Degree Days 24    
Moisture  
Dew Point 38 °F    
Average Humidity 88    
Maximum Humidity 100    
Minimum Humidity 69    
Precipitation  
Precipitation 0.00 in - - ()
Sea Level Pressure  
Sea Level Pressure 29.99 in    
Wind  
Wind Speed 7 mph ()    
Max Wind Speed 13 mph    
Max Gust Speed -    
Visibility 6.3 miles    
Events      
Averages and records for this station are not official NWS values.
T = Trace of Precipitation, MM = Missing Value Source: Averaged Metar Reports

Daily Weather History Graph

Daily Weather History Graph

Search for Another Location

Airport or City:

Trip Planner

Search our weather history database for the weather conditions in past years. The results will help you decide how hot, cold, wet, or windy it might be!

Date:

Astronomy

Dec. 18, 2012 Rise Set
Actual Time 8:06 AM GMT 4:00 PM GMT
Civil Twilight 7:27 AM GMT 4:40 PM GMT
Nautical Twilight 6:44 AM GMT 5:23 PM GMT
Astronomical Twilight 6:03 AM GMT 6:03 PM GMT
Moon 11:04 AM GMT (12/18) 10:50 PM GMT (12/18)
Length of Visible Light 9h 13m
Length of Day
7h 53m
Waxing Crescent, 32% of the Moon is Illuminated
Dec 18
Waxing Crescent
Dec 20
First Quarter
Dec 28
Full
Jan 5
Last Quarter
Jan 11
New

Hourly Weather History & Observations

Time (GMT) Temp. Windchill Dew Point Humidity Pressure Visibility Wind Dir Wind Speed Gust Speed Precip Events Conditions
12:50 AM 42.8 °F 37.0 °F 41.0 °F 93% 29.74 in 6.2 mi WNW 10.4 mph - N/A   Mostly Cloudy
1:50 AM 42.8 °F 37.0 °F 41.0 °F 93% 29.77 in 6.2 mi WNW 10.4 mph - N/A   Mostly Cloudy
2:50 AM 42 °F - 39 °F 85% 29.83 in 28 mi WNW 11.5 mph - -   Mostly Cloudy
2:50 AM 42.8 °F 36.6 °F 39.2 °F 87% 29.80 in 6.2 mi WNW 11.5 mph - N/A   Mostly Cloudy
3:50 AM 41.0 °F 33.9 °F 39.2 °F 93% 29.83 in 6.2 mi WNW 12.7 mph - N/A   Mostly Cloudy
4:50 AM 41.0 °F 34.7 °F 39.2 °F 93% 29.86 in 6.2 mi WNW 10.4 mph - N/A   Scattered Clouds
5:50 AM 40 °F - 38 °F 90% 29.91 in 19 mi WNW 6.9 mph - -   Mostly Cloudy
5:50 AM 39.2 °F 34.2 °F 37.4 °F 93% 29.89 in 6.2 mi WNW 6.9 mph - N/A   Mostly Cloudy
6:50 AM 41.0 °F 36.4 °F 39.2 °F 93% 29.92 in 6.2 mi NW 6.9 mph - N/A   Mostly Cloudy
7:50 AM 39.2 °F 34.2 °F 37.4 °F 93% 29.95 in 6.2 mi WNW 6.9 mph - N/A   Scattered Clouds
8:50 AM 39 °F - 37 °F 88% 29.99 in 19 mi WNW 6.9 mph - -   Scattered Clouds
8:50 AM 39.2 °F 34.2 °F 37.4 °F 93% 29.95 in 6.2 mi WNW 6.9 mph - N/A   Partly Cloudy
9:50 AM 41.0 °F 37.1 °F 39.2 °F 93% 29.98 in 6.2 mi WNW 5.8 mph - N/A   Partly Cloudy
10:50 AM 42.8 °F 37.5 °F 39.2 °F 87% 30.01 in 6.2 mi WNW 9.2 mph - N/A   Partly Cloudy
11:50 AM 47 °F - 40 °F 69% 30.03 in 22 mi NW 8.1 mph - -   Scattered Clouds
11:50 AM 48.2 °F - 39.2 °F 71% 30.01 in 6.2 mi NW 8.1 mph - N/A   Partly Cloudy
12:50 PM 46.4 °F 42.4 °F 39.2 °F 76% 30.01 in 6.2 mi NW 8.1 mph - N/A   Partly Cloudy
1:50 PM 46.4 °F 42.9 °F 41.0 °F 81% 30.04 in 6.2 mi NW 6.9 mph - N/A   Partly Cloudy
2:50 PM 46 °F - 39 °F 70% 30.06 in 19 mi North 3.5 mph - -   Scattered Clouds
2:50 PM 46.4 °F 45.2 °F 39.2 °F 76% 30.04 in 6.2 mi North 3.5 mph - N/A   Scattered Clouds
3:50 PM 42.8 °F 41.1 °F 39.2 °F 87% 30.06 in 6.2 mi NW 3.5 mph - N/A   Mostly Cloudy
4:50 PM 41.0 °F - 37.4 °F 87% 30.06 in - NNE 2.3 mph - N/A   Clear
5:50 PM 40 °F - 38 °F 88% 30.10 in 6 mi East 2.3 mph - -   Haze
5:50 PM 41.0 °F - 37.4 °F 87% 30.06 in 5.6 mi East 2.3 mph - N/A   Haze
6:50 PM 39.2 °F 35.9 °F 37.4 °F 93% 30.06 in 3.1 mi ENE 4.6 mph - N/A   Haze
7:50 PM 37.4 °F 31.4 °F 35.6 °F 93% 30.09 in 4.3 mi East 8.1 mph - N/A   Mist
8:50 PM 37 °F - 36 °F 94% 30.12 in 1 mi East 5.8 mph - -   Light Haze
8:50 PM 37.4 °F 32.8 °F 35.6 °F 93% 30.09 in 1.2 mi East 5.8 mph - N/A   Mist
9:50 PM 35.6 °F 30.7 °F 35.6 °F 100% 30.06 in 1.2 mi East 5.8 mph - N/A   Unknown
10:50 PM 35.6 °F 28.6 °F 33.8 °F 93% 30.06 in 1.2 mi East 9.2 mph - N/A   Mostly Cloudy
11:50 PM 35 °F - 34 °F 96% 30.11 in 1 mi East 10.4 mph - -   Mist
11:50 PM 33.8 °F 25.8 °F 33.8 °F 100% 30.06 in 1.1 mi East 10.4 mph - N/A   Overcast